Flag for Netherlands Weather past 2 weeks in Eindhoven, Netherlands

Now
55 °F

Overcast.


Feels Like: 53 °F
Forecast: 46 / 59 °F
Wind: 9 mph from Northeast

Location: Eindhoven Airport


UV Index: 3 (Moderate)

Visibility: N/A


Pressure: 29.77 "Hg

Humidity: 77%

Dew point: 48 °F

Location of EindhovenLocation

Historic Weather in Eindhoven

°F

Eindhoven temperature yesterday

Maximum temperature yesterday: 63 °F (at 3:55 PM)
Minimum temperature yesterday: 37 °F (at 1:25 AM)
Average temperature yesterday: 51 °F

Past Weeks' High & Low Weather Summary

 TemperatureHumidityPressure
High73 °F (Apr 7, 2:25 PM)100% (Apr 8, 11:02 PM)30.45 "Hg (Apr 8, 11:02 PM)
Low30 °F (Apr 16, 3:55 AM)26% (Apr 17, 3:55 PM)29.74 "Hg (Apr 7, 6:55 PM)
Average51 °F72%30.09 "Hg
* Reported Apr 5 8:25 AM — Apr 20 8:55 AM, Eindhoven, Weather by CustomWeather, © 2014

Note: Actual official high and low records may vary slightly from our data, if they occured in-between our weather recording intervals... More about our weather records

Advertising

Historic Weather Conditions — Data for Previous 24 hours

 ConditionsComfort  
Time TempWeatherWind HumidityBarometerVisibility
8:55 AM
Apr 20
55 °FOvercast.9 mph77%29.77 "HgN/A
8:25 AM54 °FFog.9 mph82%29.77 "Hg6 mi
7:55 AM54 °FFog.9 mph82%29.77 "Hg6 mi
7:25 AM54 °FFog.12 mph82%29.77 "Hg6 mi
6:55 AM52 °FFog.9 mph88%29.77 "Hg5 mi
6:25 AM50 °FFog.7 mph88%29.80 "Hg4 mi
5:55 AM46 °FFog.6 mph93%29.80 "Hg4 mi
5:25 AM50 °FFog.7 mph88%29.80 "Hg5 mi
4:55 AM50 °FFog.7 mph88%29.83 "Hg6 mi
4:25 AM50 °FFog.6 mph88%29.83 "Hg5 mi
3:55 AM50 °FFog.6 mph82%29.83 "Hg6 mi
3:25 AM50 °FCool.5 mph82%29.83 "HgN/A
2:55 AM52 °FCool.8 mph82%29.83 "HgN/A
2:25 AM54 °FCool.8 mph72%29.86 "HgN/A
1:55 AM52 °FPassing clouds.8 mph77%29.86 "HgN/A
1:25 AM54 °FPassing clouds.8 mph72%29.89 "HgN/A
12:55 AM52 °FCool.8 mph77%29.89 "HgN/A
12:25 AM52 °FCool.12 mph77%29.89 "HgN/A
11:55 PM
Apr 19
54 °FCool.12 mph72%29.89 "HgN/A
11:25 PM55 °FCool.12 mph67%29.89 "HgN/A
10:55 PM55 °FPassing clouds.13 mph67%29.92 "HgN/A
10:25 PM55 °FCool.9 mph67%29.92 "HgN/A
9:55 PM57 °FCool.9 mph63%29.92 "HgN/A
9:25 PM57 °FRefreshingly cool.12 mph59%29.92 "HgN/A
8:55 PM59 °FRefreshingly cool.14 mph55%29.92 "HgN/A
8:25 PM59 °FPassing clouds.15 mph55%29.92 "HgN/A
7:55 PM61 °FRefreshingly cool.16 mph52%29.92 "HgN/A
7:25 PM61 °FRefreshingly cool.15 mph48%29.92 "HgN/A
6:55 PM63 °FMild.17 mph45%29.92 "HgN/A
6:25 PM63 °FPassing clouds.17 mph45%29.92 "HgN/A
5:55 PM63 °FPassing clouds.16 mph42%29.95 "HgN/A
5:25 PM63 °FPassing clouds.18 mph42%29.95 "HgN/A
4:55 PM63 °FMild.20 mph42%29.95 "HgN/A
4:25 PM63 °FPassing clouds.16 mph42%29.98 "HgN/A
3:55 PM63 °FMild.15 mph42%29.98 "HgN/A
3:25 PM61 °FRefreshingly cool.15 mph42%30.01 "HgN/A
2:55 PM61 °FPassing clouds.14 mph42%30.01 "HgN/A
2:25 PM59 °FPassing clouds.16 mph45%30.01 "HgN/A
1:55 PM57 °FRefreshingly cool.14 mph48%30.01 "HgN/A
1:25 PM57 °FRefreshingly cool.9 mph51%30.04 "HgN/A
12:55 PM55 °FScattered clouds.14 mph55%30.04 "HgN/A
12:25 PM54 °FPassing clouds.14 mph58%30.07 "HgN/A
11:55 AM52 °FPassing clouds.13 mph67%30.07 "HgN/A
11:25 AM52 °FCloudy.15 mph67%30.07 "HgN/A
10:55 AM50 °FPartly sunny.12 mph67%30.07 "HgN/A
10:25 AM52 °FPartly sunny.10 mph67%30.07 "HgN/A
9:55 AM50 °FCool.10 mph67%30.07 "HgN/A
9:25 AM48 °FCool.10 mph71%30.07 "HgN/A
9:01 AM46 °FPassing clouds.6 mph76%30.04 "HgN/A
Weather by CustomWeather, © 2014

See weather overview